TimeEDT,TemperatureF,Dew PointF,Humidity,Sea Level PressureIn,VisibilityMPH,Wind Direction,Wind SpeedMPH,Gust SpeedMPH,PrecipitationIn,Events,Conditions,WindDirDegrees,DateUTC
12:54 AM,43.0,27.0,53,30.06,10.0,West,16.1,24.2,N/A,,Mostly Cloudy,260,2012-10-11 04:54:00
1:54 AM,42.1,27.0,55,30.08,10.0,WSW,13.8,-,N/A,,Mostly Cloudy,250,2012-10-11 05:54:00
2:54 AM,42.1,28.9,60,30.09,10.0,West,12.7,-,N/A,,Mostly Cloudy,280,2012-10-11 06:54:00
3:54 AM,39.9,28.9,65,30.10,10.0,West,11.5,-,N/A,,Scattered Clouds,280,2012-10-11 07:54:00
4:54 AM,39.9,28.9,65,30.12,10.0,WNW,11.5,-,N/A,,Partly Cloudy,290,2012-10-11 08:54:00
5:54 AM,39.0,30.0,70,30.13,10.0,West,8.1,-,N/A,,Partly Cloudy,280,2012-10-11 09:54:00
6:54 AM,37.0,28.9,73,30.16,10.0,West,10.4,-,N/A,,Scattered Clouds,260,2012-10-11 10:54:00
7:54 AM,37.9,28.0,68,30.17,10.0,West,9.2,-,N/A,,Scattered Clouds,260,2012-10-11 11:54:00
8:54 AM,42.1,28.0,58,30.19,10.0,West,13.8,19.6,N/A,,Scattered Clouds,260,2012-10-11 12:54:00
9:54 AM,46.0,28.0,50,30.20,10.0,WSW,12.7,21.9,N/A,,Scattered Clouds,250,2012-10-11 13:54:00
10:54 AM,46.9,27.0,46,30.19,10.0,West,13.8,21.9,N/A,,Scattered Clouds,270,2012-10-11 14:54:00
11:54 AM,48.9,27.0,43,30.19,10.0,WSW,18.4,26.5,N/A,,Mostly Cloudy,240,2012-10-11 15:54:00
12:54 PM,50.0,32.0,50,30.15,10.0,WSW,20.7,27.6,N/A,,Mostly Cloudy,240,2012-10-11 16:54:00
1:54 PM,50.0,35.1,57,30.11,10.0,SW,23.0,31.1,N/A,,Mostly Cloudy,230,2012-10-11 17:54:00
2:54 PM,51.1,35.1,54,30.09,10.0,SW,21.9,33.4,N/A,,Mostly Cloudy,230,2012-10-11 18:54:00
3:54 PM,54.0,34.0,47,30.06,10.0,SW,18.4,31.1,N/A,,Mostly Cloudy,220,2012-10-11 19:54:00
4:54 PM,55.0,34.0,45,30.04,10.0,SW,20.7,27.6,N/A,,Mostly Cloudy,230,2012-10-11 20:54:00
5:54 PM,53.6,33.8,47,30.01,10.0,SW,16.1,26.5,N/A,,Mostly Cloudy,230,2012-10-11 21:54:00
6:54 PM,54.0,30.9,41,30.02,10.0,SW,19.6,26.5,N/A,,Scattered Clouds,220,2012-10-11 22:54:00
7:54 PM,54.0,30.9,41,30.02,10.0,SSW,15.0,25.3,N/A,,Mostly Cloudy,210,2012-10-11 23:54:00
8:54 PM,53.1,33.1,47,30.04,10.0,SW,12.7,21.9,N/A,,Mostly Cloudy,220,2012-10-12 00:54:00
9:54 PM,54.0,34.0,47,30.03,10.0,SW,16.1,-,N/A,,Overcast,220,2012-10-12 01:54:00
10:54 PM,55.0,36.0,49,30.02,10.0,SW,20.7,33.4,N/A,,Overcast,230,2012-10-12 02:54:00
11:54 PM,54.0,36.0,51,30.04,10.0,WNW,16.1,20.7,N/A,,Overcast,290,2012-10-12 03:54:00